• en France
  • Liste des pays
  • À 7 jours
  • Température de l'eau
  • Carte satellitaire
  • Carte météo
  • Widgets météo
  • user-avatar
    Se connecter

    Météo par heure à Veszprém

    Ce jour, 15 Juillet, Dimanche

    Heure Température Précipitation Vent Pression Humidité
    00:00 +20°C° 0 mm 1 m/s 740 mmHg 65%
    01:00 +18°C° 0 mm 2 m/s 739 mmHg 69%
    02:00 +18°C° 0 mm 2 m/s 739 mmHg 72%
    03:00 +17°C° 0 mm 2 m/s 739 mmHg 75%
    04:00 +17°C° 0 mm 2 m/s 739 mmHg 78%
    05:00 +18°C° 0 mm 2 m/s 739 mmHg 73%
    06:00 +20°C° 0 mm 2 m/s 739 mmHg 68%
    07:00 +23°C° 0 mm 2 m/s 739 mmHg 62%
    08:00 +24°C° 0 mm 2 m/s 739 mmHg 55%
    09:00 +26°C° 0 mm 3 m/s 739 mmHg 48%
    10:00 +28°C° 0 mm 3 m/s 739 mmHg 40%
    11:00 +29°C° 0 mm 4 m/s 739 mmHg 38%
    12:00 +29°C° 0 mm 4 m/s 739 mmHg 35%
    13:00 +29°C° 0 mm 4 m/s 739 mmHg 35%
    14:00 +29°C° 0 mm 4 m/s 739 mmHg 34%
    15:00 +30°C° 0 mm 4 m/s 738 mmHg 34%
    16:00 +30°C° 0 mm 4 m/s 738 mmHg 33%
    17:00 +28°C° 0 mm 3 m/s 738 mmHg 40%
    18:00 +26°C° 0 mm 3 m/s 738 mmHg 46%
    19:00 +25°C° 0 mm 2 m/s 738 mmHg 52%
    20:00 +23°C° 0 mm 2 m/s 738 mmHg 55%
    21:00 +21°C° 0 mm 2 m/s 738 mmHg 59%
    22:00 +21°C° 0 mm 1 m/s 738 mmHg 62%
    23:00 +20°C° 0 mm 1 m/s 738 mmHg 64%

    Demain, 16 Juillet, Lundi

    Heure Température Précipitation Vent Pression Humidité
    00:00 +19°C° 0 mm 1 m/s 738 mmHg 66%
    01:00 +19°C° 0 mm 1 m/s 738 mmHg 69%
    02:00 +19°C° 0 mm 1 m/s 738 mmHg 70%
    03:00 +18°C° 0 mm 1 m/s 738 mmHg 72%
    04:00 +18°C° 0 mm 1 m/s 738 mmHg 74%
    05:00 +18°C° 0 mm 2 m/s 738 mmHg 69%
    06:00 +20°C° 0 mm 2 m/s 738 mmHg 65%
    07:00 +21°C° 0 mm 2 m/s 738 mmHg 60%
    08:00 +24°C° 0 mm 2 m/s 738 mmHg 55%
    09:00 +26°C° 0 mm 2 m/s 738 mmHg 49%
    10:00 +28°C° 0 mm 2 m/s 738 mmHg 43%
    11:00 +29°C° 0 mm 2 m/s 738 mmHg 40%
    12:00 +29°C° 0 mm 3 m/s 737 mmHg 37%
    13:00 +30°C° 0 mm 3 m/s 737 mmHg 34%
    14:00 +30°C° 0 mm 2 m/s 736 mmHg 35%
    15:00 +30°C° 0 mm 2 m/s 736 mmHg 36%
    16:00 +30°C° 0 mm 2 m/s 736 mmHg 37%
    17:00 +29°C° 0 mm 2 m/s 735 mmHg 42%
    18:00 +27°C° 0 mm 1 m/s 735 mmHg 47%
    19:00 +26°C° 0 mm 1 m/s 735 mmHg 52%
    20:00 +25°C° 0 mm 1 m/s 735 mmHg 55%
    21:00 +23°C° 0 mm 1 m/s 735 mmHg 59%
    22:00 +22°C° 0 mm 1 m/s 735 mmHg 62%
    23:00 +21°C° 0,1 mm 1 m/s 735 mmHg 65%

    Après-demain, 17 Juillet, Mardi

    Heure Température Précipitation Vent Pression Humidité
    00:00 +21°C° 0,1 mm 1 m/s 735 mmHg 67%
    01:00 +18°C° 0,1 mm 0 m/s 734 mmHg 70%
    02:00 +20°C° 0,5 mm 1 m/s 734 mmHg 73%
    03:00 +19°C° 0,5 mm 1 m/s 734 mmHg 76%
    04:00 +18°C° 0,5 mm 2 m/s 734 mmHg 79%
    05:00 +19°C° 0 mm 2 m/s 734 mmHg 76%
    06:00 +20°C° 0 mm 2 m/s 734 mmHg 73%
    07:00 +22°C° 0 mm 3 m/s 735 mmHg 69%
    08:00 +25°C° 0 mm 3 m/s 735 mmHg 61%
    09:00 +26°C° 0 mm 4 m/s 735 mmHg 53%
    10:00 +28°C° 0 mm 5 m/s 735 mmHg 44%
    11:00 +29°C° 0 mm 5 m/s 735 mmHg 42%
    12:00 +30°C° 0 mm 6 m/s 734 mmHg 40%
    13:00 +30°C° 0 mm 6 m/s 734 mmHg 38%
    14:00 +30°C° 0 mm 6 m/s 734 mmHg 38%
    15:00 +30°C° 0 mm 6 m/s 734 mmHg 38%
    16:00 +30°C° 0 mm 6 m/s 734 mmHg 38%
    17:00 +28°C° 0 mm 6 m/s 734 mmHg 42%
    18:00 +27°C° 0 mm 5 m/s 734 mmHg 47%
    19:00 +26°C° 0 mm 4 m/s 735 mmHg 51%
    20:00 +23°C° 0 mm 4 m/s 735 mmHg 56%
    21:00 +22°C° 0 mm 4 m/s 735 mmHg 60%
    22:00 +20°C° 0 mm 4 m/s 735 mmHg 65%
    23:00 +20°C° 0 mm 4 m/s 735 mmHg 66%

    18 Juillet, Mercredi

    Heure Température Précipitation Vent Pression Humidité
    00:00 +20°C° 0 mm 4 m/s 735 mmHg 67%
    01:00 +19°C° 0 mm 4 m/s 735 mmHg 68%
    02:00 +19°C° 0 mm 5 m/s 735 mmHg 68%
    03:00 +19°C° 0 mm 5 m/s 735 mmHg 68%
    04:00 +19°C° 0 mm 5 m/s 735 mmHg 68%
    05:00 +20°C° 0 mm 6 m/s 735 mmHg 64%
    06:00 +21°C° 0 mm 7 m/s 736 mmHg 60%
    07:00 +22°C° 0 mm 8 m/s 736 mmHg 57%
    08:00 +23°C° 0,1 mm 9 m/s 736 mmHg 56%
    09:00 +23°C° 0,1 mm 9 m/s 736 mmHg 55%
    10:00 +24°C° 0,1 mm 9 m/s 736 mmHg 54%
    11:00 +23°C° 0,2 mm 9 m/s 736 mmHg 56%
    12:00 +23°C° 0,2 mm 9 m/s 736 mmHg 58%
    13:00 +23°C° 0,2 mm 9 m/s 736 mmHg 61%
    14:00 +22°C° 0,1 mm 8 m/s 736 mmHg 62%
    15:00 +22°C° 0,1 mm 8 m/s 736 mmHg 64%
    16:00 +22°C° 0,1 mm 8 m/s 736 mmHg 66%
    17:00 +21°C° 0,3 mm 8 m/s 736 mmHg 69%
    18:00 +21°C° 0,3 mm 8 m/s 736 mmHg 72%
    19:00 +20°C° 0,3 mm 8 m/s 736 mmHg 75%
    20:00 +20°C° 0,5 mm 7 m/s 736 mmHg 79%
    21:00 +18°C° 0,5 mm 7 m/s 736 mmHg 83%
    22:00 +19°C° 0,5 mm 6 m/s 737 mmHg 87%
    23:00 +19°C° 0,2 mm 6 m/s 737 mmHg 87%

    19 Juillet, Jeudi

    Heure Température Précipitation Vent Pression Humidité
    00:00 +19°C° 0,2 mm 6 m/s 737 mmHg 87%
    01:00 +19°C° 0,2 mm 6 m/s 737 mmHg 86%
    02:00 +19°C° 0 mm 6 m/s 737 mmHg 85%
    03:00 +19°C° 0 mm 6 m/s 737 mmHg 84%
    04:00 +19°C° 0 mm 6 m/s 737 mmHg 82%
    05:00 +19°C° 0 mm 6 m/s 737 mmHg 79%
    06:00 +20°C° 0 mm 7 m/s 737 mmHg 75%
    07:00 +20°C° 0 mm 7 m/s 737 mmHg 72%
    08:00 +22°C° 0 mm 7 m/s 738 mmHg 66%
    09:00 +23°C° 0 mm 8 m/s 738 mmHg 60%
    10:00 +26°C° 0 mm 8 m/s 738 mmHg 55%
    11:00 +26°C° 0 mm 8 m/s 738 mmHg 52%
    12:00 +27°C° 0 mm 8 m/s 738 mmHg 50%
    13:00 +28°C° 0 mm 8 m/s 738 mmHg 48%
    14:00 +28°C° 0 mm 7 m/s 738 mmHg 48%
    15:00 +28°C° 0 mm 7 m/s 738 mmHg 48%
    16:00 +28°C° 0 mm 7 m/s 737 mmHg 48%
    17:00 +27°C° 0 mm 6 m/s 737 mmHg 52%
    18:00 +26°C° 0 mm 5 m/s 737 mmHg 56%
    19:00 +25°C° 0 mm 4 m/s 737 mmHg 61%
    20:00 +22°C° 0 mm 4 m/s 738 mmHg 65%
    21:00 +21°C° 0 mm 3 m/s 738 mmHg 69%
    22:00 +20°C° 0 mm 3 m/s 738 mmHg 73%
    23:00 +19°C° 0 mm 3 m/s 738 mmHg 75%

    20 Juillet, Vendredi

    Heure Température Précipitation Vent Pression Humidité
    00:00 +19°C° 0 mm 3 m/s 738 mmHg 77%
    01:00 +18°C° 0 mm 3 m/s 738 mmHg 79%
    02:00 +18°C° 0 mm 3 m/s 738 mmHg 81%
    03:00 +17°C° 0 mm 2 m/s 738 mmHg 84%
    04:00 +17°C° 0 mm 2 m/s 738 mmHg 86%
    05:00 +19°C° 0 mm 2 m/s 738 mmHg 80%
    06:00 +20°C° 0 mm 3 m/s 738 mmHg 73%
    07:00 +22°C° 0 mm 3 m/s 739 mmHg 67%
    08:00 +25°C° 0 mm 3 m/s 739 mmHg 59%
    09:00 +26°C° 0 mm 3 m/s 739 mmHg 52%
    10:00 +28°C° 0 mm 3 m/s 738 mmHg 45%
    11:00 +29°C° 0 mm 3 m/s 738 mmHg 41%
    12:00 +30°C° 0 mm 3 m/s 738 mmHg 37%
    13:00 +31°C° 0 mm 2 m/s 738 mmHg 33%
    14:00 +31°C° 0 mm 2 m/s 737 mmHg 32%
    15:00 +32°C° 0 mm 2 m/s 737 mmHg 32%
    16:00 +32°C° 0 mm 2 m/s 737 mmHg 31%
    17:00 +30°C° 0 mm 2 m/s 737 mmHg 38%
    18:00 +28°C° 0 mm 2 m/s 737 mmHg 44%
    19:00 +26°C° 0 mm 2 m/s 736 mmHg 50%
    20:00 +25°C° 0 mm 2 m/s 737 mmHg 54%
    21:00 +24°C° 0 mm 1 m/s 737 mmHg 57%
    22:00 +22°C° 0 mm 1 m/s 737 mmHg 61%
    23:00 +22°C° 0 mm 1 m/s 737 mmHg 61%
    Voir plus